Terug naar catalogus

SL-8 R/B

ActiefLEO
NORAD 1589·ROCKET BODY·🇷🇺 Russia

Gelanceerd Sep 18, 1965 vanaf Baikonur Cosmodrome

Loading…

Volgende Passages (komende 24 uur)

TLE

VersSource: Space-Track

Epoch: Sep 14, 2026, 13:24 UTC

1 01589U 65073F   26257.55900462 -.00000121  00000-0 -23242-3 0  9999
2 01589  56.0503 199.1823 0159624 135.8062  36.1200 12.33054751746728

Volg SL-8 R/B in realtime met AllMySat

Download on the App Store